When you browse on this site, cookies collect data to enhance your experience and personalize the content and advertising you see.
Visit our Privacy Policy to learn more. By continuing to use the site, you agree to this use of cookies and data.
  • In Italy
  • List of Countries
  • For 7 days
  • Water Temperature
  • Satellite Maps
  • Weather Map
  • Weather Widgets
  • user-avatar
    Login

    Hourly Weather Rechytsa

    Today, 21 April, Sunday

    Time Temperature Precipitation Wind Pressure Humidity
    00:00 +9°C° 0.1 mm 2 mps 755 mmHg 59%
    01:00 +8°C° 0.1 mm 2 mps 755 mmHg 63%
    02:00 +8°C° 0 mm 2 mps 755 mmHg 61%
    03:00 +7°C° 0 mm 2 mps 755 mmHg 64%
    04:00 +7°C° 0 mm 2 mps 755 mmHg 68%
    05:00 +6°C° 0 mm 2 mps 755 mmHg 71%
    06:00 +8°C° 0 mm 3 mps 755 mmHg 65%
    07:00 +10°C° 0 mm 4 mps 755 mmHg 59%
    08:00 +12°C° 0 mm 4 mps 755 mmHg 51%
    09:00 +13°C° 0 mm 5 mps 755 mmHg 46%
    10:00 +14°C° 0 mm 5 mps 755 mmHg 42%
    11:00 +15°C° 0 mm 5 mps 755 mmHg 37%
    12:00 +15°C° 0 mm 5 mps 755 mmHg 37%
    13:00 +15°C° 0 mm 5 mps 755 mmHg 37%
    14:00 +15°C° 0 mm 5 mps 755 mmHg 38%
    15:00 +15°C° 0 mm 5 mps 755 mmHg 39%
    16:00 +15°C° 0 mm 5 mps 755 mmHg 40%
    17:00 +14°C° 0 mm 5 mps 755 mmHg 41%
    18:00 +13°C° 0 mm 4 mps 755 mmHg 44%
    19:00 +12°C° 0 mm 4 mps 756 mmHg 47%
    20:00 +11°C° 0 mm 3 mps 756 mmHg 51%
    21:00 +11°C° 0 mm 3 mps 757 mmHg 52%
    22:00 +10°C° 0 mm 3 mps 757 mmHg 53%
    23:00 +10°C° 0 mm 3 mps 758 mmHg 54%

    Tomorrow, 22 April, Monday

    Time Temperature Precipitation Wind Pressure Humidity
    00:00 +9°C° 0 mm 3 mps 758 mmHg 54%
    01:00 +9°C° 0 mm 2 mps 758 mmHg 55%
    02:00 +8°C° 0 mm 2 mps 758 mmHg 55%
    03:00 +8°C° 0 mm 2 mps 758 mmHg 57%
    04:00 +7°C° 0 mm 2 mps 759 mmHg 60%
    05:00 +6°C° 0 mm 2 mps 759 mmHg 62%
    06:00 +8°C° 0 mm 2 mps 759 mmHg 57%
    07:00 +10°C° 0 mm 2 mps 760 mmHg 52%
    08:00 +11°C° 0 mm 3 mps 760 mmHg 47%
    09:00 +13°C° 0 mm 3 mps 760 mmHg 41%
    10:00 +14°C° 0 mm 3 mps 760 mmHg 35%
    11:00 +15°C° 0 mm 4 mps 760 mmHg 29%
    12:00 +15°C° 0 mm 4 mps 760 mmHg 30%
    13:00 +16°C° 0 mm 3 mps 760 mmHg 30%
    14:00 +16°C° 0 mm 3 mps 760 mmHg 30%
    15:00 +16°C° 0 mm 3 mps 760 mmHg 31%
    16:00 +16°C° 0 mm 3 mps 760 mmHg 32%
    17:00 +16°C° 0 mm 3 mps 760 mmHg 33%
    18:00 +14°C° 0 mm 2 mps 760 mmHg 38%
    19:00 +12°C° 0 mm 2 mps 760 mmHg 43%
    20:00 +11°C° 0 mm 1 mps 760 mmHg 48%
    21:00 +10°C° 0 mm 1 mps 761 mmHg 49%
    22:00 +10°C° 0 mm 1 mps 761 mmHg 51%
    23:00 +9°C° 0 mm 1 mps 761 mmHg 53%

    Day after tomorrow, 23 April, Tuesday

    Time Temperature Precipitation Wind Pressure Humidity
    00:00 +9°C° 0 mm 1 mps 761 mmHg 52%
    01:00 +9°C° 0 mm 1 mps 762 mmHg 52%
    02:00 +9°C° 0 mm 1 mps 762 mmHg 52%
    03:00 +9°C° 0 mm 1 mps 762 mmHg 51%
    04:00 +9°C° 0 mm 1 mps 762 mmHg 51%
    05:00 +9°C° 0 mm 2 mps 762 mmHg 51%
    06:00 +10°C° 0 mm 2 mps 762 mmHg 49%
    07:00 +12°C° 0 mm 2 mps 762 mmHg 48%
    08:00 +13°C° 0 mm 2 mps 763 mmHg 47%
    09:00 +14°C° 0 mm 3 mps 762 mmHg 41%
    10:00 +16°C° 0 mm 3 mps 762 mmHg 36%
    11:00 +17°C° 0 mm 3 mps 762 mmHg 30%
    12:00 +18°C° 0 mm 3 mps 762 mmHg 31%
    13:00 +18°C° 0 mm 3 mps 762 mmHg 31%
    14:00 +18°C° 0 mm 3 mps 762 mmHg 32%
    15:00 +18°C° 0 mm 3 mps 761 mmHg 33%
    16:00 +18°C° 0 mm 3 mps 761 mmHg 35%
    17:00 +17°C° 0 mm 3 mps 761 mmHg 36%
    18:00 +16°C° 0 mm 3 mps 761 mmHg 39%
    19:00 +15°C° 0 mm 2 mps 761 mmHg 43%
    20:00 +14°C° 0 mm 2 mps 761 mmHg 46%
    21:00 +14°C° 0 mm 2 mps 761 mmHg 47%
    22:00 +13°C° 0 mm 2 mps 762 mmHg 48%
    23:00 +13°C° 0 mm 2 mps 762 mmHg 49%

    24 April, Wednesday

    Time Temperature Precipitation Wind Pressure Humidity
    00:00 +12°C° 0 mm 2 mps 762 mmHg 51%
    01:00 +12°C° 0 mm 2 mps 762 mmHg 53%
    02:00 +12°C° 0 mm 2 mps 762 mmHg 56%
    03:00 +10°C° 0 mm 2 mps 762 mmHg 59%
    04:00 +9°C° 0 mm 2 mps 762 mmHg 63%
    05:00 +8°C° 0 mm 2 mps 762 mmHg 66%
    06:00 +10°C° 0 mm 2 mps 762 mmHg 60%
    07:00 +13°C° 0 mm 2 mps 762 mmHg 54%
    08:00 +14°C° 0 mm 3 mps 762 mmHg 48%
    09:00 +16°C° 0 mm 3 mps 762 mmHg 44%
    10:00 +17°C° 0 mm 4 mps 762 mmHg 40%
    11:00 +18°C° 0 mm 4 mps 762 mmHg 36%
    12:00 +19°C° 0 mm 4 mps 762 mmHg 35%
    13:00 +19°C° 0 mm 4 mps 761 mmHg 35%
    14:00 +20°C° 0 mm 4 mps 761 mmHg 34%
    15:00 +19°C° 0 mm 4 mps 761 mmHg 35%
    16:00 +19°C° 0 mm 4 mps 761 mmHg 37%
    17:00 +19°C° 0 mm 4 mps 760 mmHg 38%
    18:00 +17°C° 0 mm 3 mps 760 mmHg 44%
    19:00 +14°C° 0 mm 3 mps 761 mmHg 50%
    20:00 +13°C° 0 mm 2 mps 761 mmHg 56%
    21:00 +13°C° 0 mm 2 mps 761 mmHg 57%
    22:00 +12°C° 0 mm 2 mps 761 mmHg 59%
    23:00 +10°C° 0 mm 2 mps 761 mmHg 61%

    25 April, Thursday

    Time Temperature Precipitation Wind Pressure Humidity
    00:00 +10°C° 0 mm 2 mps 761 mmHg 62%
    01:00 +10°C° 0 mm 2 mps 761 mmHg 63%
    02:00 +9°C° 0 mm 2 mps 761 mmHg 64%
    03:00 +9°C° 0 mm 2 mps 761 mmHg 65%
    04:00 +8°C° 0 mm 2 mps 761 mmHg 67%
    05:00 +8°C° 0 mm 2 mps 761 mmHg 68%
    06:00 +10°C° 0 mm 2 mps 761 mmHg 62%
    07:00 +12°C° 0 mm 3 mps 761 mmHg 57%
    08:00 +14°C° 0 mm 3 mps 761 mmHg 51%
    09:00 +17°C° 0 mm 4 mps 761 mmHg 47%
    10:00 +18°C° 0 mm 4 mps 761 mmHg 42%
    11:00 +20°C° 0 mm 5 mps 761 mmHg 37%
    12:00 +20°C° 0 mm 5 mps 760 mmHg 36%
    13:00 +21°C° 0 mm 5 mps 760 mmHg 36%
    14:00 +21°C° 0 mm 5 mps 759 mmHg 35%
    15:00 +21°C° 0 mm 5 mps 759 mmHg 37%
    16:00 +21°C° 0 mm 4 mps 759 mmHg 38%
    17:00 +20°C° 0 mm 4 mps 758 mmHg 40%
    18:00 +18°C° 0 mm 4 mps 758 mmHg 46%
    19:00 +17°C° 0 mm 3 mps 758 mmHg 52%
    20:00 +14°C° 0 mm 3 mps 758 mmHg 58%
    21:00 +13°C° 0 mm 3 mps 758 mmHg 59%
    22:00 +13°C° 0 mm 3 mps 758 mmHg 60%
    23:00 +12°C° 0 mm 3 mps 758 mmHg 60%

    26 April, Friday

    Time Temperature Precipitation Wind Pressure Humidity
    00:00 +12°C° 0 mm 3 mps 757 mmHg 63%
    01:00 +11°C° 0 mm 3 mps 757 mmHg 65%
    02:00 +11°C° 0 mm 3 mps 757 mmHg 67%
    03:00 +10°C° 0 mm 3 mps 757 mmHg 68%
    04:00 +10°C° 0 mm 3 mps 757 mmHg 69%
    05:00 +10°C° 0 mm 3 mps 756 mmHg 70%
    06:00 +12°C° 0 mm 4 mps 756 mmHg 63%
    07:00 +14°C° 0 mm 5 mps 756 mmHg 56%
    08:00 +16°C° 0 mm 5 mps 756 mmHg 50%
    09:00 +17°C° 0 mm 6 mps 756 mmHg 45%
    10:00 +20°C° 0 mm 6 mps 755 mmHg 40%
    11:00 +21°C° 0 mm 7 mps 755 mmHg 35%
    12:00 +22°C° 0 mm 7 mps 754 mmHg 34%
    13:00 +22°C° 0 mm 7 mps 754 mmHg 33%
    14:00 +23°C° 0 mm 6 mps 753 mmHg 32%
    15:00 +22°C° 0 mm 6 mps 753 mmHg 34%
    16:00 +22°C° 0 mm 5 mps 752 mmHg 37%
    17:00 +22°C° 0 mm 5 mps 752 mmHg 40%
    18:00 +20°C° 0 mm 4 mps 752 mmHg 46%
    19:00 +18°C° 0 mm 4 mps 752 mmHg 52%
    20:00 +16°C° 0 mm 3 mps 752 mmHg 58%
    21:00 +16°C° 0 mm 3 mps 751 mmHg 61%
    22:00 +14°C° 0 mm 3 mps 751 mmHg 63%
    23:00 +14°C° 0 mm 3 mps 751 mmHg 66%
    Show more